Flag for Thailand Weather past 2 weeks in Phuket, Thailand

Now
90 °F

Partly sunny.


Feels Like: 98 °F
Forecast: 78 / 88 °F
Wind: 5 mph from North

Location: Phuket Airport

Current Time: Jan 31, 2015 at 3:08:06 PM

Latest Report: Jan 31, 2015 at 2:30 PM


Visibility: 4 mi

Pressure: 29.86 "Hg

Humidity: 59%

Dew point: 73 °F

Location of PhuketLocation

Historic Weather in Phuket — Graph

°F

Phuket temperature yesterday

Maximum temperature yesterday: 91 °F (at 2:30 PM)
Minimum temperature yesterday: 73 °F (at 5:00 AM)
Average temperature yesterday: 82 °F

Past Weeks' High & Low Weather Summary

 TemperatureHumidityPressure
High91 °F (Jan 27, 1:00 PM)94% (Jan 23, 7:30 AM)30.07 "Hg (Jan 23, 7:30 AM)
Low72 °F (Jan 23, 6:30 AM)33% (Jan 25, 4:30 PM)29.80 "Hg (Jan 28, 3:00 PM)
Average81 °F68%29.91 "Hg
* Reported Jan 16 1:00 PM — Jan 31 1:30 PM, Phuket, Weather by CustomWeather, © 2014

Note: Actual official high and low records may vary slightly from our data, if they occured in-between our weather recording intervals... More about our weather records

Advertising

Phuket weather history for previous 24 hours

 ConditionsComfort  
Time TempWeatherWind HumidityBarometerVisibility
1:30 PM
Jan 31
90 °FPartly sunny.10 mph49%29.89 "Hg4 mi
1:00 PM88 °FPartly sunny.9 mph52%29.89 "Hg4 mi
12:30 PM88 °FPartly sunny.13 mph52%29.92 "Hg4 mi
12:00 PM88 °FPartly sunny.13 mph52%29.92 "Hg4 mi
11:30 AM86 °FPartly sunny.12 mph55%29.92 "Hg4 mi
11:00 AM86 °FPartly sunny.12 mph55%29.95 "Hg4 mi
10:00 AM84 °FPartly sunny.9 mph62%29.95 "Hg4 mi
9:30 AM82 °FPartly sunny.8 mph66%29.95 "Hg4 mi
9:00 AM82 °FPartly sunny.13 mph66%29.95 "Hg4 mi
8:30 AM81 °FPartly sunny.13 mph70%29.95 "Hg4 mi
8:00 AM79 °FPartly sunny.9 mph79%29.92 "Hg6 mi
7:30 AM79 °FPartly sunny.9 mph74%29.92 "Hg6 mi
7:00 AM77 °FPartly sunny.9 mph79%29.92 "Hg6 mi
6:30 AM77 °FPassing clouds.12 mph79%29.92 "Hg6 mi
6:00 AM77 °FPassing clouds.9 mph79%29.89 "Hg6 mi
5:30 AM77 °FPassing clouds.7 mph79%29.89 "Hg6 mi
5:00 AM79 °FPassing clouds.9 mph74%29.89 "Hg6 mi
4:30 AM77 °FPassing clouds.6 mph79%29.89 "Hg6 mi
4:00 AM77 °FPassing clouds.6 mph79%29.89 "Hg6 mi
3:30 AM79 °FPassing clouds.6 mph74%29.89 "Hg6 mi
3:00 AM75 °FPassing clouds.No wind89%29.89 "Hg6 mi
2:30 AM75 °FPassing clouds.No wind89%29.89 "Hg6 mi
2:00 AM77 °FPassing clouds.No wind83%29.92 "Hg6 mi
1:30 AM77 °FPassing clouds.No wind83%29.92 "Hg6 mi
12:30 AM79 °FPassing clouds.No wind79%29.95 "Hg6 mi
12:00 AM77 °FPassing clouds.No wind83%29.95 "Hg6 mi
11:30 PM
Jan 30
79 °FPassing clouds.No wind84%29.95 "Hg6 mi
11:00 PM79 °FPassing clouds.5 mph84%29.95 "Hg6 mi
10:30 PM81 °FPassing clouds.No wind79%29.95 "Hg6 mi
10:00 PM81 °FPassing clouds.No wind79%29.95 "Hg6 mi
9:30 PM81 °FPassing clouds.No wind74%29.95 "Hg6 mi
9:00 PM82 °FPassing clouds.No wind70%29.92 "Hg6 mi
8:30 PM82 °FPassing clouds.3 mph66%29.92 "Hg6 mi
8:00 PM81 °FPassing clouds.2 mph74%29.92 "Hg6 mi
7:30 PM82 °FPassing clouds.5 mph70%29.89 "Hg6 mi
7:00 PM84 °FPassing clouds.6 mph66%29.89 "Hg6 mi
6:00 PM86 °FScattered clouds.8 mph59%29.86 "Hg6 mi
5:30 PM86 °FScattered clouds.7 mph62%29.86 "HgN/A
5:00 PM88 °FScattered clouds.5 mph62%29.83 "HgN/A
4:30 PM90 °FScattered clouds.5 mph55%29.83 "HgN/A
4:00 PM91 °FScattered clouds.7 mph46%29.83 "HgN/A
3:30 PM91 °FScattered clouds.10 mph46%29.83 "HgN/A
3:00 PM91 °FScattered clouds.12 mph46%29.83 "HgN/A
Weather by CustomWeather, © 2014

See weather overviewHow to use our weather pages